Regional Weather Roundup
Issued by NWS

Home | Current Version | Previous Version | Graphics & Text | Print | Product List | Glossary On
Versions: 1 2 3 4 5 6 7 8 9 10 11 12 13 14 15 16 17 18 19 20 21 22 23 24 25 26 27 28 29 30 31 32 33 34 35 36 37 38 39 40 41 42 43 44 45 46 47 48 49 50
000
ASUS43 KOAX 012310
RWRNE

WEATHER ROUNDUP FOR NEBRASKA
NATIONAL WEATHER SERVICE OMAHA NE
600 PM CDT SAT AUG 01 2015

NOTES: SATELLITE DATA IS BEING USED TO AUGMENT CLOUD COVER ABOVE
       12000 FEET.
       "FAIR" INDICATES FEW OR NO CLOUDS BELOW 12,000 FEET WITH NO
       SIGNIFICANT WEATHER AND/OR OBSTRUCTIONS TO VISIBILITY.

  * THESE STATIONS DO NOT REPORT WEATHER SUCH AS RAIN...SNOW OR FOG.

NEZ001>004-019>022-054>056-020000-
NEBRASKA PANHANDLE

CITY           SKY/WX    TMP DP  RH WIND       PRES   REMARKS
SCOTTSBLUFF    MOSUNNY   93  51  23 NE9       29.97F HX  90
ALLIANCE       MOSUNNY   82  58  43 S18G29    30.00S
CHADRON        MOSUNNY   92  62  36 S14       29.92F HX  92
KIMBALL        PTSUNNY   85  48  27 S12       30.03F
SIDNEY         MOSUNNY   94  52  24 S21G29    30.01F HX  91
$$

NEZ057>060-069>072-079>082-020000-
SOUTHWEST NEBRASKA

CITY           SKY/WX    TMP DP  RH WIND       PRES   REMARKS
NORTH PLATTE   SUNNY     83  61  47 E18       30.00F
IMPERIAL       SUNNY     94  47  20 SE17G28   29.98F HX  90
LEXINGTON      SUNNY     85  61  45 E15       30.00F
MCCOOK         SUNNY     92  57  30 SE12      29.97F HX  90
OGALLALA       SUNNY     88  65  46 E15       29.99F HX  90
$$

NEZ005>010-023>029-035>040-094-020000-
NORTH CENTRAL NEBRASKA

CITY           SKY/WX    TMP DP  RH WIND       PRES   REMARKS
VALENTINE      SUNNY     84  56  38 S22G28    29.96S
AINSWORTH      SUNNY     84  58  41 SW14      29.96F
BROKEN BOW     PTSUNNY   81  54  39 S12       29.97F
O`NEILL        SUNNY     86  53  32 SW17G24   29.92F
ORD            MOSUNNY   82  56  40 S13       29.94F
THEDFORD       MOSUNNY   81  57  44 S21G26    30.00F
$$

NEZ041-046>049-061>064-073>077-083>087-020000-
SOUTH CENTRAL NEBRASKA

CITY           SKY/WX    TMP DP  RH WIND       PRES   REMARKS
GRAND ISLAND   MOSUNNY   80  61  52 S8        29.97F
AURORA         MOSUNNY   81  63  53 SE5       29.97F
HASTINGS       MOSUNNY   83  60  45 E3        29.98F
HEBRON         SUNNY     86  66  51 NE8       29.96F
HOLDREGE       SUNNY     82  61  49 E14       30.00F
KEARNEY *      MOSUNNY   81  61  50 SE8       29.99F
YORK           MOSUNNY   81  66  61 SW5       29.96F
$$

NEZ011>018-030>034-042>045-020000-
NORTHEAST NEBRASKA

CITY           SKY/WX    TMP DP  RH WIND       PRES   REMARKS
NORFOLK        SUNNY     86  63  45 S14       29.92S
ALBION         SUNNY     82  64  53 S5        29.94F
BLAIR          PTSUNNY   82  68  63 SE3       29.93S
COLUMBUS *     SUNNY     81  63  54 SW7       29.93F
FREMONT        MOSUNNY   84  64  51 S5        29.93S
TEKAMAH        FAIR      82  69  64 S9        29.91F
WAYNE          SUNNY     82  70  66 SE7       29.90F
$$

NEZ050>053-065>068-078-088>093-020000-
SOUTHEAST NEBRASKA

CITY           SKY/WX    TMP DP  RH WIND       PRES   REMARKS
LINCOLN        MOSUNNY   87  59  38 S8        29.93F
OMAHA EPPLEY   PTSUNNY   85  67  54 SE9       29.92F
BEATRICE       MOSUNNY   86  71  60 N9        29.96F HX  91
FALLS CITY     MOSUNNY   88  76  67 N3        29.94F HX  99
NEBRASKA CITY  MOSUNNY   84  67  54 W7        29.95F
PLATTSMOUTH    MOSUNNY   83  71  66 SW6       29.94F
$$

NEZ044-045-051>053-067-020000-
OMAHA AREA

CITY           SKY/WX    TMP DP  RH WIND       PRES   REMARKS
OMAHA EPPLEY   PTSUNNY   85  67  54 SE9       29.92F
BLAIR          PTSUNNY   82  68  63 SE3       29.93S
FREMONT        MOSUNNY   84  64  51 S5        29.93S
MILLARD        PTSUNNY   85  71  63 S7        29.91F HX  90
OFFUTT AFB     PTSUNNY   84  71  66 SE6       29.91F
PLATTSMOUTH    MOSUNNY   83  71  66 SW6       29.94F
WAHOO          FAIR      84  65  52 S10       29.92S
$$


USA.gov is the U.S. government's official web portal to all federal, state and local government web resources and services.